This is the latest recevied weather packets stored in our database for station/object N2ZVN. If no packets are shown the sender has not sent any weather packets the latest 10 day(s).
| Time | Temp. | Humidity | Pressure | Rain* | Wind** | Luminosity | Snow |
|---|---|---|---|---|---|---|---|
| 1777762456 | 7.22° C | 53% | 1015.2 hPa | 0 mm | - | 21 W/m² | - |
| 1777762153 | 7.22° C | 53% | 1015.2 hPa | 0 mm | - | 19 W/m² | - |
| 1777761849 | 7.22° C | 52% | 1015.2 hPa | 0 mm | - | 20 W/m² | - |
| 1777761546 | 7.22° C | 52% | 1015.2 hPa | 0 mm | - | 30 W/m² | - |
| 1777761244 | 7.78° C | 51% | 1015 hPa | 0 mm | - | 37 W/m² | - |
| 1777760942 | 7.78° C | 53% | 1015.1 hPa | 0 mm | - | 41 W/m² | - |
| 1777760639 | 7.78° C | 52% | 1015.1 hPa | 0 mm | - | 48 W/m² | - |
| 1777760334 | 7.78° C | 54% | 1015.1 hPa | 0 mm | - | 51 W/m² | - |
| 1777760032 | 7.78° C | 53% | 1015.1 hPa | 0 mm | - | 49 W/m² | - |
| 1777759729 | 7.78° C | 52% | 1015.1 hPa | 0 mm | - | 53 W/m² | - |
| 1777759424 | 7.78° C | 51% | 1014.9 hPa | 0 mm | - | 70 W/m² | - |
| 1777759121 | 7.78° C | 50% | 1015.1 hPa | 0 mm | - | 83 W/m² | - |
| 1777758819 | 8.33° C | 49% | 1015.2 hPa | 0 mm | - | 94 W/m² | - |
| 1777758515 | 8.33° C | 50% | 1015.1 hPa | 0 mm | - | 99 W/m² | - |
| 1777758212 | 8.33° C | 48% | 1015.1 hPa | 0 mm | - | 109 W/m² | - |
| 1777757909 | 8.33° C | 52% | 1015.1 hPa | 0 mm | - | 121 W/m² | - |
| 1777757606 | 8.33° C | 53% | 1015.1 hPa | 0 mm | - | 131 W/m² | - |
| 1777757305 | 8.33° C | 51% | 1015 hPa | 0 mm | - | 147 W/m² | - |
| 1777757003 | 8.33° C | 49% | 1015.2 hPa | 0 mm | - | 164 W/m² | - |
| 1777756700 | 8.89° C | 48% | 1014.8 hPa | 0 mm | - | 160 W/m² | - |
| 1777756401 | 8.33° C | 49% | 1014.9 hPa | 0 mm | - | 174 W/m² | - |
| 1777756099 | 8.33° C | 49% | 1015 hPa | 0 mm | - | 185 W/m² | - |
| 1777755796 | 8.33° C | 46% | 1015.1 hPa | 0 mm | - | 192 W/m² | - |
| 1777755493 | 8.89° C | 47% | 1015 hPa | 0 mm | - | 202 W/m² | - |
| 1777755188 | 8.33° C | 47% | 1015.1 hPa | 0 mm | - | 199 W/m² | - |
* Rain latest hour (hover to see other rain measurements)
** Current wind speed in m/s (hover to see current wind gust speed)